FENGYUN 1C DEB, 32132

Orbit data source: Space-Track

FENGYUN 1C DEB, 32132 is space debris in SSO originally from a launch on Mon, 10 May 1999 UTC launched from the Taiyaun Space Center, China (TSC). Fengyun 1C debris stems from the Chinese weather satellite Fengyun-1C, which was intentionally destroyed by a Chinese anti-satellite missile in 2007. This event dramatically increased the amount of space debris, with thousands of trackable fragments posing hazards to satellites and human spaceflight. The Fengyun 1C debris cloud has become a focal point in discussions about space sustainability and the need for international regulations to prevent the creation of new debris.

Loading next visibility...
Identifier
32132, 1999-025CSA
Orbit
SSO
Country
Flag of CNCN / PRC
Related business
Manufacturer
Unknown
Mission
Spacecraft
Bus & Motor
Unknown
Mass
Unknown
Launch date (UTC)
1999-05-10 (27 years ago)
Launch vehicle
Unknown
Launch site
Taiyaun Space Center, China (TSC)
Object type
Payload
Rocket body
Debris
Shape & HBR
Unknown shape, 0.1 m
Radar Cross Section
Small (<0.1 m²)

Expand to show TLE details & history
Last TLE update: 1 week ago

TLE from 1 week ago
0 FENGYUN 1C DEB
1 32132U 99025CSA 26201.90766378  .00002745  00000-0  64637-3 0  9990
2 32132  98.3652 260.9705 0074980 310.1053  49.3586 14.53452413739945
Epoch: 2026-07-20T21:47Z
TLE epoch observation values (Epoch: 2026-07-20T21:47:02.150Z)
Latitude
-0.00012°
Longitude
-4.47341°
Altitude
682.953 km
Speed
7.533 km/s
True Right ascension
17h 23m 52s
True Declination
0° 00' 00"
Sunlit
Object was in full shadow at epoch
Visualization orbit readout
Latitude
Unknown
Longitude
Unknown
Altitude
Unknown
Speed
Unknown
Apparent Right ascension
Unknown
Apparent Declination
Unknown
Sunlit
N/A
Visualization observer readout
Local Sidereal Time
12:01:44
Azimuth
Unknown
Elevation
Unknown
Doppler factor
Unknown
Orbital elements
Apogee altitude
764.65 km
Perigee altitude
658.334 km
Semi-major axis
7,089.629 km
Eccentricity
0.0075
Inclination
98.3652°
RAAN
260.9705°
Arg. of periapsis
310.1053°
True anomaly
50.01456°
Mean anomaly
49.3586°
Eccentric anomaly
49.68618°
Mean motion
3.63587 °/min
Orbital period
99.01 mins
BSTAR
0.00064637
Loading maneuver chart data...
Computing Atmospheric mass density...
Loading historical data...
Loading historical data...
Loading historical data...
Loading historical data...
Loading historical data...
Loading historical data...
Loading historical data...

Documentation

Showing up to 5 results
|